• In Netherlands
  • List of Countries
  • For 7 days
  • Water Temperature
  • Satellite Maps
  • Weather Map
  • Weather Widgets
  • user-avatar
    Login

    Hourly Weather Annaba

    Today, 28 April, Friday

    Time Temperature Precipitation Wind Pressure Humidity
    00:00 +16°C° 0.1 mm 2 mps 757 mmHg 96%
    01:00 +17°C° 0 mm 5 mps 757 mmHg 98%
    02:00 +17°C° 0.1 mm 5 mps 757 mmHg 97%
    03:00 +17°C° 0.1 mm 5 mps 758 mmHg 96%
    04:00 +17°C° 0.1 mm 5 mps 758 mmHg 95%
    05:00 +17°C° 0.1 mm 5 mps 758 mmHg 95%
    06:00 +16°C° 0.1 mm 5 mps 758 mmHg 94%
    07:00 +16°C° 0 mm 5 mps 758 mmHg 94%
    08:00 +16°C° 0 mm 5 mps 758 mmHg 91%
    09:00 +17°C° 0 mm 5 mps 758 mmHg 89%
    10:00 +17°C° 0 mm 5 mps 758 mmHg 87%
    11:00 +17°C° 0 mm 5 mps 757 mmHg 85%
    12:00 +17°C° 0 mm 5 mps 757 mmHg 84%
    13:00 +17°C° 0 mm 5 mps 757 mmHg 83%
    14:00 +17°C° 0.1 mm 5 mps 757 mmHg 81%
    15:00 +16°C° 0.1 mm 5 mps 757 mmHg 80%
    16:00 +16°C° 0.1 mm 5 mps 757 mmHg 78%
    17:00 +16°C° 0.3 mm 5 mps 757 mmHg 81%
    18:00 +15°C° 0.3 mm 5 mps 757 mmHg 83%
    19:00 +14°C° 0.3 mm 5 mps 758 mmHg 86%
    20:00 +14°C° 0.2 mm 5 mps 758 mmHg 86%
    21:00 +14°C° 0.2 mm 4 mps 759 mmHg 87%
    22:00 +14°C° 0.2 mm 4 mps 760 mmHg 88%
    23:00 +13°C° 0.1 mm 3 mps 760 mmHg 88%

    Tomorrow, 29 April, Saturday

    Time Temperature Precipitation Wind Pressure Humidity
    00:00 +13°C° 0.1 mm 3 mps 760 mmHg 88%
    01:00 +14°C° 0.1 mm 2 mps 759 mmHg 89%
    02:00 +14°C° 0 mm 2 mps 759 mmHg 89%
    03:00 +13°C° 0 mm 2 mps 759 mmHg 89%
    04:00 +13°C° 0 mm 2 mps 759 mmHg 90%
    05:00 +14°C° 0 mm 2 mps 759 mmHg 88%
    06:00 +14°C° 0 mm 1 mps 759 mmHg 86%
    07:00 +14°C° 0 mm 1 mps 759 mmHg 85%
    08:00 +15°C° 0 mm 1 mps 759 mmHg 80%
    09:00 +18°C° 0 mm 1 mps 759 mmHg 74%
    10:00 +19°C° 0 mm 1 mps 759 mmHg 69%
    11:00 +19°C° 0 mm 2 mps 759 mmHg 65%
    12:00 +20°C° 0 mm 2 mps 759 mmHg 61%
    13:00 +21°C° 0 mm 3 mps 759 mmHg 58%
    14:00 +21°C° 0 mm 3 mps 758 mmHg 58%
    15:00 +21°C° 0 mm 4 mps 758 mmHg 58%
    16:00 +21°C° 0 mm 4 mps 758 mmHg 58%
    17:00 +20°C° 0 mm 4 mps 758 mmHg 64%
    18:00 +18°C° 0 mm 3 mps 758 mmHg 69%
    19:00 +16°C° 0 mm 3 mps 758 mmHg 75%
    20:00 +14°C° 0 mm 3 mps 759 mmHg 78%
    21:00 +14°C° 0 mm 2 mps 759 mmHg 81%
    22:00 +13°C° 0 mm 2 mps 759 mmHg 84%
    23:00 +13°C° 0 mm 2 mps 759 mmHg 84%

    Day after tomorrow, 30 April, Sunday

    Time Temperature Precipitation Wind Pressure Humidity
    00:00 +13°C° 0 mm 2 mps 759 mmHg 85%
    01:00 +13°C° 0 mm 2 mps 759 mmHg 86%
    02:00 +12°C° 0 mm 2 mps 758 mmHg 86%
    03:00 +12°C° 0 mm 2 mps 758 mmHg 86%
    04:00 +12°C° 0 mm 2 mps 758 mmHg 86%
    05:00 +14°C° 0 mm 2 mps 758 mmHg 82%
    06:00 +16°C° 0 mm 2 mps 758 mmHg 78%
    07:00 +17°C° 0 mm 2 mps 758 mmHg 74%
    08:00 +19°C° 0 mm 2 mps 758 mmHg 68%
    09:00 +21°C° 0 mm 2 mps 758 mmHg 63%
    10:00 +24°C° 0 mm 2 mps 758 mmHg 57%
    11:00 +24°C° 0 mm 3 mps 758 mmHg 57%
    12:00 +24°C° 0 mm 3 mps 758 mmHg 58%
    13:00 +25°C° 0 mm 3 mps 758 mmHg 58%
    14:00 +24°C° 0 mm 3 mps 758 mmHg 60%
    15:00 +24°C° 0 mm 3 mps 758 mmHg 63%
    16:00 +23°C° 0 mm 2 mps 757 mmHg 65%
    17:00 +21°C° 0 mm 2 mps 758 mmHg 71%
    18:00 +20°C° 0 mm 2 mps 758 mmHg 76%
    19:00 +19°C° 0 mm 2 mps 758 mmHg 81%
    20:00 +18°C° 0 mm 1 mps 759 mmHg 84%
    21:00 +15°C° 0 mm 1 mps 759 mmHg 87%
    22:00 +14°C° 0 mm 1 mps 760 mmHg 89%
    23:00 +14°C° 0 mm 1 mps 760 mmHg 89%

    1 May, Monday

    Time Temperature Precipitation Wind Pressure Humidity
    00:00 +14°C° 0 mm 2 mps 760 mmHg 89%
    01:00 +14°C° 0 mm 2 mps 760 mmHg 88%
    02:00 +12°C° 0 mm 3 mps 760 mmHg 89%
    03:00 +12°C° 0 mm 3 mps 760 mmHg 90%
    04:00 +12°C° 0 mm 3 mps 760 mmHg 90%
    05:00 +14°C° 0 mm 4 mps 760 mmHg 87%
    06:00 +15°C° 0 mm 4 mps 760 mmHg 84%
    07:00 +18°C° 0 mm 4 mps 760 mmHg 81%
    08:00 +19°C° 0 mm 4 mps 761 mmHg 77%
    09:00 +20°C° 0 mm 5 mps 761 mmHg 72%
    10:00 +21°C° 0 mm 5 mps 762 mmHg 68%
    11:00 +22°C° 0 mm 5 mps 762 mmHg 63%
    12:00 +23°C° 0 mm 5 mps 761 mmHg 58%
    13:00 +25°C° 0 mm 5 mps 761 mmHg 54%
    14:00 +24°C° 0 mm 6 mps 761 mmHg 55%
    15:00 +24°C° 0 mm 6 mps 761 mmHg 56%
    16:00 +24°C° 0 mm 6 mps 761 mmHg 58%
    17:00 +22°C° 0 mm 5 mps 761 mmHg 66%
    18:00 +20°C° 0 mm 5 mps 762 mmHg 74%
    19:00 +18°C° 0 mm 4 mps 762 mmHg 82%
    20:00 +17°C° 0 mm 4 mps 763 mmHg 86%
    21:00 +14°C° 0 mm 3 mps 763 mmHg 89%
    22:00 +13°C° 0 mm 3 mps 764 mmHg 93%
    23:00 +13°C° 0 mm 3 mps 763 mmHg 93%

    2 May, Tuesday

    Time Temperature Precipitation Wind Pressure Humidity
    00:00 +13°C° 0 mm 3 mps 763 mmHg 93%
    01:00 +14°C° 0 mm 2 mps 763 mmHg 93%
    02:00 +14°C° 0 mm 2 mps 763 mmHg 93%
    03:00 +13°C° 0 mm 2 mps 763 mmHg 92%
    04:00 +13°C° 0 mm 2 mps 763 mmHg 92%
    05:00 +14°C° 0 mm 2 mps 763 mmHg 90%
    06:00 +15°C° 0 mm 1 mps 763 mmHg 88%
    07:00 +18°C° 0 mm 1 mps 763 mmHg 86%
    08:00 +19°C° 0 mm 1 mps 763 mmHg 77%
    09:00 +19°C° 0 mm 2 mps 763 mmHg 69%
    10:00 +21°C° 0 mm 2 mps 763 mmHg 60%
    11:00 +23°C° 0 mm 2 mps 763 mmHg 56%
    12:00 +22°C° 0 mm 3 mps 763 mmHg 52%
    13:00 +24°C° 0 mm 3 mps 762 mmHg 49%
    14:00 +24°C° 0 mm 3 mps 762 mmHg 50%
    15:00 +23°C° 0 mm 4 mps 761 mmHg 51%
    16:00 +23°C° 0 mm 4 mps 761 mmHg 52%
    17:00 +21°C° 0 mm 3 mps 761 mmHg 59%
    18:00 +19°C° 0 mm 3 mps 761 mmHg 66%
    19:00 +18°C° 0 mm 2 mps 761 mmHg 73%
    20:00 +16°C° 0 mm 2 mps 762 mmHg 77%
    21:00 +15°C° 0 mm 2 mps 762 mmHg 81%
    22:00 +13°C° 0 mm 1 mps 762 mmHg 86%
    23:00 +13°C° 0 mm 1 mps 762 mmHg 85%

    3 May, Wednesday

    Time Temperature Precipitation Wind Pressure Humidity
    00:00 +13°C° 0 mm 1 mps 761 mmHg 85%
    01:00 +13°C° 0 mm 1 mps 761 mmHg 84%
    02:00 +13°C° 0 mm 1 mps 760 mmHg 84%
    03:00 +13°C° 0 mm 1 mps 760 mmHg 84%
    04:00 +13°C° 0 mm 1 mps 760 mmHg 83%
    05:00 +15°C° 0 mm 2 mps 760 mmHg 78%
    06:00 +17°C° 0 mm 2 mps 760 mmHg 72%
    07:00 +19°C° 0 mm 2 mps 760 mmHg 67%
    08:00 +21°C° 0 mm 2 mps 760 mmHg 62%
    09:00 +24°C° 0 mm 2 mps 760 mmHg 56%
    10:00 +26°C° 0 mm 2 mps 760 mmHg 51%
    11:00 +27°C° 0 mm 3 mps 759 mmHg 49%
    12:00 +28°C° 0 mm 4 mps 759 mmHg 47%
    13:00 +28°C° 0 mm 4 mps 759 mmHg 45%
    14:00 +28°C° 0 mm 4 mps 758 mmHg 48%
    15:00 +27°C° 0 mm 5 mps 758 mmHg 50%
    16:00 +27°C° 0 mm 5 mps 758 mmHg 53%
    17:00 +25°C° 0 mm 4 mps 758 mmHg 61%
    18:00 +22°C° 0 mm 3 mps 759 mmHg 69%
    19:00 +20°C° 0 mm 3 mps 759 mmHg 77%
    20:00 +18°C° 0.2 mm 2 mps 759 mmHg 81%
    21:00 +17°C° 0.2 mm 2 mps 760 mmHg 85%
    22:00 +15°C° 0.2 mm 2 mps 760 mmHg 89%
    23:00 +15°C° 0 mm 2 mps 760 mmHg 88%
    Show more